This is the latest recevied weather packets stored in our database for station/object SR9WXP. If no packets are shown the sender has not sent any weather packets the latest 10 day(s).
| Time | Temp. | Humidity | Pressure | Rain* | Wind** | Luminosity | Snow |
|---|---|---|---|---|---|---|---|
| 1788067225 | 12.78° C | 31% | 859.3 hPa | - | - | - | - |
| 1788067166 | 12.78° C | 31% | 859.2 hPa | - | - | - | - |
| 1788067046 | 13.33° C | 31% | 858.8 hPa | - | - | - | - |
| 1788066922 | 13.33° C | 31% | 858.6 hPa | - | - | - | - |
| 1788066804 | 13.33° C | 31% | 858.6 hPa | - | - | - | - |
| 1788066683 | 13.33° C | 31% | 858.6 hPa | - | - | - | - |
| 1788066622 | 12.78° C | 31% | 858.6 hPa | - | - | - | - |
| 1788066563 | 12.78° C | 31% | 858.6 hPa | - | - | - | - |
| 1788066319 | 11.67° C | 31% | 858.6 hPa | - | - | - | - |
| 1788066199 | 11.11° C | 31% | 858.7 hPa | - | - | - | - |
| 1788066077 | 10.56° C | 31% | 858.9 hPa | - | - | - | - |
| 1788066016 | 10.56° C | 31% | 858.9 hPa | - | - | - | - |
| 1788065957 | 10.56° C | 31% | 859 hPa | - | - | - | - |
| 1788065713 | 10.56° C | 31% | 859.1 hPa | - | - | - | - |
| 1788065594 | 10.56° C | 31% | 859.2 hPa | - | - | - | - |
| 1788065475 | 10.56° C | 31% | 859.2 hPa | - | - | - | - |
| 1788065400 | 10.56° C | 31% | 859.1 hPa | - | - | - | - |
| 1788065340 | 10.56° C | 31% | 859.1 hPa | - | - | - | - |
| 1788065221 | 10.56° C | 31% | 859.1 hPa | - | - | - | - |
| 1788065097 | 10.56° C | 31% | 859.2 hPa | - | - | - | - |
| 1788064978 | 10.56° C | 31% | 859.2 hPa | - | - | - | - |
| 1788064858 | 10.56° C | 31% | 859.1 hPa | - | - | - | - |
| 1788064797 | 10.56° C | 31% | 859 hPa | - | - | - | - |
| 1788064737 | 10.56° C | 31% | 859 hPa | - | - | - | - |
| 1788064617 | 10° C | 31% | 858.9 hPa | - | - | - | - |
* Rain since midnight (hover to see other rain measurements)
** Current wind speed in m/s (hover to see current wind gust speed)